SCP
1 1 1 1 1 1 1 1 1 1 1 1 1 1 1 1 1 1 1 1 1 1 1 1 1 2 2 2 2 2 2 1 1 1 1 1 0 0 0 0 0 0 0
1 1 1 0 0 0 0 1 1 1 1 1 1 1 1 1 1 1 1 1 1 1 1 1 1 1 1 2 2 2 2 1 1 1 1 1 0 0 0 0 0 0 0
1 0 0 0 0 0 0 0 0 1 1 1 1 1 1 1 1 1 1 1 1 1 1 1 1 1 1 1 1 1 1 1 1 1 1 1 0 0 0 0 0 0 0
0 0 0 0 -0 -0 0 0 0 1 1 1 1 1 0 0 0 0 0 0 0 0 0 1 1 1 1 1 1 1 1 1 1 1 1 1 1 0 0 0 0 0 0
0 0 -0 -0 -0 -0 0 0 0 0 0 0 0 0 0 0 0 0 0 0 0 0 0 0 0 0 1 1 1 1 1 1 1 1 1 1 1 0 0 0 0 0 0
-0 -0 -0 -0 0 0 0 0 0 0 0 0 0 0 0 0 0 0 0 0 0 0 0 0 0 0 0 0 0 1 1 1 1 1 1 1 1 1 0 0 0 0 0
-0 -0 0 0 0 0 0 0 0 0 0 0 0 0 0 0 0 0 0 0 0 0 0 0 0 0 0 0 0 0 0 0 0 1 1 1 1 1 0 0 0 0 0
0 0 0 0 0 0 0 0 0 0 0 0 0 0 0 0 0 0 0 0 0 0 0 0 0 0 0 0 0 0 0 0 0 0 0 0 0 0 0 0 0 0 0
0 0 0 0 0 0 0 0 0 0 0 0 0 0 0 0 0 0 0 0 0 0 0 0 0 0 0 0 0 0 0 0 0 0 0 0 0 0 0 0 0 0 0
0 0 0 0 0 0 0 0 0 0 0 0 0 0 0 0 0 0 0 0 0 0 0 0 0 0 0 0 0 0 0 0 0 0 0 0 0 0 0 0 0 0 0
0 0 0 0 0 0 0 0 0 0 0 0 0 0 0 0 0 0 0 0 0 0 0 0 0 0 0 0 0 0 0 0 0 0 0 0 0 0 0 0 0 0 0
0 0 0 0 0 0 0 0 0 0 0 0 0 0 0 0 0 0 0 0 0 0 0 0 0 0 0 0 0 0 0 0 0 0 0 0 0 0 0 0 0 0 0
0 0 0 0 0 0 0 0 0 0 0 0 0 0 0 0 0 0 0 0 0 0 0 0 0 0 0 0 0 0 0 0 0 0 0 0 0 0 0 0 0 0 0
0 0 0 0 0 0 0 0 0 0 0 0 0 0 0 0 0 0 0 0 0 0 0 0 0 0 0 0 0 0 0 0 0 0 0 0 0 0 0 0 0 0 0
0 0 0 0 0 0 0 0 0 0 0 0 0 0 0 0 0 0 0 0 0 0 0 0 0 0 0 0 0 0 0 0 0 0 0 0 0 0 0 0 0 0 0
0 0 0 0 0 0 0 0 0 0 0 0 0 0 0 0 0 0 0 0 0 0 0 0 0 0 0 0 0 0 0 0 0 0 0 0 0 0 0 0 0 0 0
0 0 0 -0 0 0 0 0 0 0 0 0 0 0 0 0 0 0 0 0 0 0 0 0 0 0 0 0 0 0 0 0 0 0 0 0 0 0 0 0 0 0 0
0 0 0 0 0 0 0 0 0 0 0 0 0 0 0 0 0 0 0 0 0 0 0 0 0 0 0 0 0 0 0 0 0 0 0 0 0 0 0 0 0 0 0
0 0 0 0 0 0 0 0 0 0 0 0 0 0 0 0 0 0 0 0 0 0 0 0 0 0 0 0 0 0 0 0 0 0 0 0 0 0 0 0 0 0 0
0 0 0 0 0 0 0 0 0 0 0 0 0 0 0 0 0 0 0 0 0 0 0 0 0 0 0 0 0 0 0 0 0 0 0 0 0 0 0 0 0 0 0
0 0 0 0 0 0 0 0 0 0 0 0 0 0 0 0 0 0 0 0 0 0 0 0 0 0 0 0 0 0 0 0 0 0 0 0 0 0 0 0 0 0 0
0 0 0 0 0 0 0 0 0 0 0 0 0 0 0 0 0 0 0 0 0 0 0 0 0 0 0 0 0 0 0 0 0 0 -0 0 0 0 0 0 0 0 0
0 0 0 0 0 0 0 0 0 0 0 0 0 0 0 0 0 0 0 0 0 0 0 0 0 0 0 0 0 0 0 0 0 0 0 0 0 0 0 0 0 0 0
0 0 0 0 0 0 0 0 0 0 0 0 0 0 0 0 0 0 0 0 0 0 0 0 0 0 0 0 -0 0 0 -0 -0 -0 0 0 0 0 0 0 0 0 0
0 0 0 0 0 0 0 0 0 0 0 0 0 0 0 0 0 0 0 0 0 0 0 0 0 0 0 0 0 0 0 0 0 0 0 0 0 0 0 0 0 0 0
0 0 0 0 0 0 0 0 0 0 0 0 0 0 0 0 0 0 0 0 0 0 0 0 0 0 0 0 0 0 0 0 0 0 0 0 0 0 0 0 0 0 0
Wind_Speed
1 2 3 4 5 5 6 5 5 4 3 2 2 2 4 3 3 4 5 5 5 5 5 5 6 6 6 8 8 7 8 7 4 4 5 6 7 8 7 7 7 8 8
1 1 2 2 3 4 5 5 5 4 3 3 2 2 2 2 2 2 3 3 4 4 4 4 5 5 5 7 7 7 5 4 5 5 3 4 4 4 6 6 7 8 6
4 3 3 3 4 5 5 5 5 4 3 2 1 0 1 2 2 2 2 3 4 4 4 4 4 4 4 5 7 7 7 6 5 6 5 4 5 2 2 4 5 5 4
4 4 4 4 5 5 4 4 4 3 2 2 2 2 2 2 2 2 3 4 4 4 4 4 4 4 4 5 6 6 6 7 7 5 7 6 4 4 3 2 3 3 4
6 6 6 5 4 4 4 4 3 3 2 2 2 2 2 2 2 2 4 4 4 4 4 4 4 5 4 6 7 6 7 6 7 6 5 6 6 6 5 4 2 2 2
6 6 5 4 3 3 3 3 3 3 2 2 2 2 3 2 3 3 3 3 3 4 4 5 5 6 5 6 7 7 8 7 8 7 6 5 5 6 6 7 4 3 1
4 5 5 5 5 5 4 4 4 4 3 3 3 3 3 3 3 3 3 4 3 3 5 5 6 6 6 7 7 7 8 8 9 9 7 7 7 5 5 6 4 3 2
4 4 5 5 5 5 5 4 5 5 4 4 4 4 4 3 3 3 3 3 3 4 5 6 7 7 8 8 7 7 8 7 9 10 9 7 7 6 6 6 5 4 3
7 7 7 6 5 5 5 5 6 6 6 6 5 4 4 4 4 4 3 3 3 4 5 6 7 7 8 8 8 6 8 7 8 8 9 7 6 6 6 5 6 6 5
10 9 8 8 7 5 5 4 4 6 6 6 5 5 5 5 4 4 4 4 4 4 6 6 7 7 8 8 7 7 7 7 6 5 7 6 5 5 5 5 5 4 5
9 9 9 8 8 7 6 6 5 5 5 6 6 6 6 5 5 4 5 4 4 4 5 6 7 7 7 7 6 6 6 5 4 3 3 4 4 4 4 4 4 4 5
8 8 9 10 11 11 9 8 6 6 6 6 6 7 6 5 5 6 5 4 4 4 4 5 6 6 6 7 6 6 5 3 2 1 0 1 2 3 3 4 5 5 5
9 10 10 10 10 10 10 9 8 8 8 7 6 7 7 7 7 7 5 4 4 3 3 4 5 6 6 6 5 5 4 4 3 2 3 2 3 4 4 5 6 6 7
9 10 10 9 9 9 9 9 10 9 9 8 7 8 9 9 9 7 6 5 4 3 3 3 4 4 4 4 4 4 4 5 5 4 4 4 4 6 6 7 8 9 10
11 11 10 9 9 10 10 10 10 10 9 9 8 9 9 8 8 7 7 5 4 4 3 2 3 3 3 3 3 3 3 4 5 5 5 6 8 8 7 7 9 10 9
12 12 12 11 11 11 11 11 11 11 10 10 10 9 8 7 8 8 7 6 5 4 3 2 1 2 2 3 4 2 3 4 4 5 5 6 8 12 15 15 12 11 10
13 13 13 11 11 11 10 9 10 10 10 10 10 9 8 8 8 8 8 8 7 5 4 3 2 1 0 1 3 4 4 4 4 5 4 5 7 8 11 14 15 13 12
12 12 11 12 11 10 10 9 9 9 9 10 10 9 9 8 8 7 9 9 7 6 5 5 4 3 2 2 2 5 5 6 6 5 5 6 6 6 9 11 11 9 8
11 11 11 12 11 12 11 10 10 10 9 10 10 10 9 9 8 8 10 9 8 8 7 5 6 5 3 4 5 6 5 5 6 5 5 6 7 8 11 11 11 9 7
11 11 11 10 10 11 9 9 10 10 11 11 10 10 9 10 10 10 9 8 8 9 9 7 7 7 5 6 8 8 5 5 4 4 5 7 8 9 10 9 10 9 6
14 13 12 10 10 11 9 10 10 11 11 11 10 10 9 9 10 9 8 8 9 9 9 9 7 7 7 8 10 10 5 6 5 4 4 4 9 10 9 8 7 9 7
13 12 11 11 11 10 10 11 12 12 11 11 11 11 10 9 9 8 8 8 10 11 11 9 8 6 6 8 10 12 9 8 6 5 4 5 9 10 10 8 10 11 8
13 11 11 12 12 11 10 12 13 12 11 11 11 11 11 9 8 8 8 7 9 10 10 10 9 7 6 6 10 12 11 11 5 5 8 9 11 10 8 10 11 8 6
13 12 12 13 13 12 12 12 13 12 11 12 12 10 10 10 8 7 6 6 8 9 10 10 10 9 8 7 7 7 7 9 7 7 9 11 10 7 8 7 6 4 4
12 11 12 14 15 13 12 13 12 11 11 11 11 10 9 9 9 8 7 7 8 10 11 11 11 12 11 12 14 11 9 8 8 9 6 5 4 5 4 4 4 4 4
13 13 14 14 15 13 13 13 11 10 10 10 10 8 8 8 8 8 8 9 10 13 16 15 13 12 14 18 18 16 15 15 16 10 7 6 6 6 6 6 5 4 4
Wind_Direction
59 76 118 126 132 143 150 158 167 180 167 165 192 214 237 243 244 244 250 257 261 262 253 253 249 238 236 240 236 233 234 232 212 233 262 261 247 246 245 243 246 248 245
118 113 123 128 147 156 157 160 174 180 181 183 191 210 237 257 255 269 284 283 284 279 272 265 263 255 252 251 245 235 233 230 197 207 233 276 287 254 243 236 238 243 240
185 191 186 178 174 177 179 177 181 182 185 186 155 331 331 319 316 318 313 317 314 305 295 286 278 271 260 258 252 236 232 240 223 206 205 216 238 266 266 242 236 236 237
207 212 211 206 204 204 192 182 178 177 177 166 174 194 220 254 265 283 294 308 311 312 314 305 295 286 273 268 265 251 237 237 239 225 219 221 204 209 256 258 242 235 236
222 225 225 223 222 209 193 185 172 174 176 173 182 194 230 244 280 297 305 310 314 315 317 315 308 296 284 276 271 268 253 241 240 231 218 226 228 220 225 247 240 236 241
245 248 251 247 244 225 206 193 186 202 202 197 198 206 231 255 284 301 307 309 309 310 314 316 309 300 291 284 277 269 260 251 247 240 224 210 210 209 213 225 225 219 223
266 272 270 258 251 239 228 214 206 220 218 215 220 222 230 238 254 275 285 297 305 305 309 314 307 300 292 287 281 273 264 254 249 242 234 224 221 206 204 213 213 205 195
328 312 299 284 267 254 244 233 227 231 223 221 228 227 227 230 245 257 267 278 284 289 296 304 305 302 297 293 286 278 270 259 250 248 240 234 225 213 207 200 188 186 182
352 349 346 336 311 286 263 246 240 243 235 228 229 230 228 230 241 251 259 270 277 289 299 305 306 306 304 300 293 282 276 267 255 248 239 235 227 213 209 201 189 178 176
7 4 358 351 341 326 317 300 260 249 246 239 234 233 230 231 237 242 254 264 277 290 304 310 310 311 312 310 301 292 284 274 263 249 239 233 221 207 203 199 193 178 159
2 359 357 355 354 354 353 342 321 295 278 259 245 238 237 231 232 239 248 255 270 289 302 308 312 315 319 320 315 308 302 289 280 265 234 225 204 191 195 187 179 168 142
7 5 3 3 4 0 353 344 333 316 296 278 257 244 240 233 233 241 245 247 263 284 298 309 315 321 326 330 333 331 329 322 315 308 166 174 152 150 162 162 155 146 136
8 8 7 4 358 353 348 342 334 321 315 303 277 256 242 234 234 237 239 239 251 279 301 313 321 326 331 340 348 354 3 16 19 31 62 71 102 106 107 117 121 122 118
2 2 357 352 348 344 341 338 334 327 321 313 292 268 250 237 233 232 230 229 234 255 285 304 318 328 336 349 5 20 27 38 36 38 49 56 84 104 107 107 110 112 111
358 354 347 341 338 339 337 335 329 327 323 315 300 280 264 246 234 228 225 222 224 235 254 288 320 332 338 359 13 36 57 59 54 46 49 59 73 88 101 111 114 115 112
344 339 336 334 331 327 325 326 324 323 321 315 306 296 277 253 238 229 220 216 217 222 226 241 301 343 3 20 32 70 78 78 76 64 55 66 70 81 85 91 96 109 118
332 326 323 318 313 309 305 306 310 315 318 315 312 309 294 268 249 234 219 216 210 205 208 202 193 199 323 49 63 89 103 92 84 81 74 80 76 82 92 87 83 81 88
316 311 307 305 302 298 297 295 300 307 312 314 314 315 306 286 265 241 227 219 204 200 202 196 185 180 204 165 106 97 97 89 76 73 87 98 90 93 102 98 89 82 76
297 294 292 293 294 294 296 300 301 303 306 307 309 309 306 296 279 253 238 221 204 200 197 191 183 180 194 180 150 125 107 95 80 72 79 97 99 107 110 106 101 92 82
300 298 296 295 294 293 293 293 294 297 297 298 299 301 300 295 286 267 248 224 207 204 195 190 188 182 184 182 162 144 127 113 103 82 76 86 105 111 113 116 118 112 106
299 299 300 297 291 292 293 288 288 285 285 289 292 294 293 291 287 279 258 228 210 200 194 189 189 186 184 182 171 159 146 144 135 121 106 97 108 109 109 112 117 127 123
295 296 296 294 293 293 291 288 285 283 286 288 288 287 288 289 294 284 271 238 211 199 193 187 185 187 185 182 180 173 164 154 144 142 133 124 121 116 115 111 120 121 115
290 289 287 289 289 286 283 283 283 284 287 287 283 282 284 283 281 278 274 254 216 200 193 188 187 184 182 185 184 178 171 161 144 143 143 136 128 116 110 117 124 122 118
285 285 285 286 287 283 280 276 280 284 285 286 283 280 279 281 278 271 264 253 225 201 194 188 187 181 177 179 175 170 163 153 134 130 130 123 115 104 106 110 110 111 121
285 281 281 282 282 281 278 278 279 280 283 285 284 281 275 274 277 272 258 251 233 210 195 192 186 180 184 188 176 166 165 161 151 136 124 124 125 123 120 113 114 118 121
286 286 284 282 282 281 279 278 276 274 277 283 284 279 275 272 271 277 277 256 239 221 208 195 185 188 183 168 170 169 162 152 148 140 147 152 154 156 153 147 140 138 138